Home > Weather > Koszalin > Past weeks

Flag for Poland Past Weather in Koszalin, Poland — Yesterday and Last 2 Weeks

Now
60 °F

Fog.


Feels Like: 60 °F
Forecast: 59 / 75 °F
Wind: No wind

Location: Koszalin

Current Time: Jul 25, 2016 at 2:25:01 AM

Latest Report: Jul 25, 2016 at 1:00 AM


Visibility: 5 mi

Pressure: 30.10 "Hg

Humidity: 97%

Dew Point: 59 °F

Location of KoszalinLocation

Past Weather in Koszalin — Graph

°F

Koszalin Temperature Yesterday

Maximum temperature yesterday: 72 °F (at 6:00 PM)
Minimum temperature yesterday: 58 °F (at 5:00 AM)
Average temperature yesterday: 66 °F

High & Low Weather Summary for the Past Weeks

 TemperatureHumidityPressure
High79 °F (Jul 11, 1:00 PM)98% (Jul 20, 5:00 AM)30.19 "Hg (Jul 20, 5:00 AM)
Low52 °F (Jul 22, 6:00 AM)41% (Jul 21, 5:00 PM)29.68 "Hg (Jul 11, 6:00 AM)
Average64 °F80%30.00 "Hg
* Reported Jul 10 2:00 AM — Jul 25 1:00 AM, Koszalin, Weather by CustomWeather, © 2016

Note: Actual official high and low records may vary slightly from our data, if they occured in-between our weather recording intervals... More about our weather records

Advertising

Koszalin Weather History for the Previous 24 Hours

Scroll right to see more
 ConditionsComfort  
Time TempWeatherWind HumidityBarometerVisibility
1:00 AM
Mon, Jul 25
60 °FFog.No wind97%30.10 "Hg5 mi
12:00 AM61 °FFog.No wind95%30.11 "Hg6 mi
11:00 PM
Sun, Jul 24
63 °FFog.No wind92%30.11 "Hg6 mi
10:00 PM67 °FFog.1 mph85%30.12 "Hg5 mi
9:00 PM69 °FPassing clouds.1 mph79%30.11 "Hg19 mi
8:00 PM71 °FScattered clouds.2 mph73%30.11 "Hg22 mi
7:00 PM72 °FOvercast.1 mph70%30.11 "Hg22 mi
6:00 PM72 °FOvercast.2 mph70%30.11 "Hg19 mi
5:00 PM71 °FPartly sunny.3 mph74%30.12 "Hg19 mi
4:00 PM72 °FPartly sunny.3 mph70%30.13 "Hg19 mi
3:00 PM72 °FOvercast.3 mph74%30.14 "Hg19 mi
2:00 PM71 °FOvercast.2 mph74%30.14 "Hg18 mi
1:00 PM70 °FOvercast.2 mph75%30.14 "Hg16 mi
12:00 PM69 °FOvercast.1 mph77%30.14 "Hg14 mi
11:00 AM67 °FOvercast.2 mph82%30.15 "Hg9 mi
10:00 AM66 °FFog.1 mph88%30.15 "Hg6 mi
9:00 AM65 °FFog.1 mph90%30.15 "Hg6 mi
8:00 AM63 °FFog.2 mph93%30.14 "Hg5 mi
7:00 AM62 °FOvercast.2 mph95%30.14 "Hg7 mi
6:00 AM59 °FFog.1 mph98%30.14 "Hg3 mi
5:00 AM58 °FFog.No wind96%30.15 "Hg2 mi
4:00 AM59 °FFog.1 mph97%30.15 "Hg3 mi
3:00 AM59 °FFog.1 mph97%30.15 "Hg4 mi
2:00 AM59 °FFog.1 mph97%30.14 "Hg3 mi
Weather by CustomWeather, © 2016

See weather overviewHow to use our weather pages